Regional Weather Roundup
Issued by NWS

Home | Current Version | Previous Version | Text Only | Print | Product List | Glossary Off
Versions: 1 2 3 4 5 6 7 8 9 10 11 12 13 14 15 16 17 18 19 20 21 22 23 24 25 26 27 28 29 30 31 32 33 34 35 36 37 38 39 40 41 42 43 44 45 46 47 48 49 50

000
ASUS43 KFSD 222310
RWRSD

WEATHER ROUNDUP FOR SOUTH DAKOTA
NATIONAL WEATHER SERVICE SIOUX FALLS SD
600 PM CDT SAT JUL 22 2017

NOTE: "FAIR" INDICATES FEW OR NO CLOUDS BELOW 12,000 FEET WITH NO
SIGNIFICANT WEATHER AND/OR OBSTRUCTIONS TO VISIBILITY.


SDZ001>005-009-010-012>017-230000-
NORTHWEST AND NORTH CENTRAL SOUTH DAKOTA

CITY           SKY/WX    TMP DP  RH WIND       PRES   REMARKS
BUFFALO          N/A     88  40  18 NW17G26   29.99F
FAITH            N/A     91  37  15 NW15G24   30.01S
MOBRIDGE       SUNNY     90  49  24 NW17G29   29.91S
$$

SDZ012>016-024>037-041>051-057-063-072>074-230000-
SOUTHWEST AND SOUTH CENTRAL SOUTH DAKOTA

CITY           SKY/WX    TMP DP  RH WIND       PRES   REMARKS
RAPID CTY ARPT SUNNY     92  40  16 CALM      30.05F
PIERRE         SUNNY     95  42  16 N8        29.92F
CUSTER         PTSUNNY   80  35  19 E17       30.21F
ELLSWORTH AFB  MOSUNNY   91  40  16 N8        30.05F
PHILIP         SUNNY     98  39  13 N15       29.95F
PINE RIDGE     MOSUNNY   89  53  29 SE13      30.06S
SPEARFISH      LGT RAIN  88  34  14 NW5G12    30.11F
WINNER         FAIR      96  46  18 SW10      29.95F
$$

SDZ004>011-016>023-039-040-230000-
NORTHEAST SOUTH DAKOTA

CITY           SKY/WX    TMP DP  RH WIND       PRES   REMARKS
ABERDEEN       SUNNY     89  54  30 NW12      29.89F
WATERTOWN      SUNNY     84  60  44 W12       29.92S
BROOKINGS      SUNNY     86  58  38 W12       29.93S
SISSETON         N/A     88  55  32 NW10      29.86F
$$

SDZ017-020-022-023-036>040-048>070-230000-
SOUTHEAST SOUTH DAKOTA

CITY           SKY/WX    TMP DP  RH WIND       PRES   REMARKS
SIOUX FALLS    MOSUNNY   86  64  47 NW9       29.92S
HURON          SUNNY     89  62  40 N9        29.90F
CHAMBERLAIN    MOSUNNY   94  54  25 W3        29.92F
MITCHELL       MOSUNNY   90  61  37 VRB3      29.92F
YANKTON        CLOUDY    87  66  49 NW5       29.93S
$$

ABBREVIATIONS USED IN REMARKS
   TC - TEMPERATURE IN CELSIUS
  WCI - WIND CHILL INDEX
   HX - HEAT INDEX
  VSB - VISIBILITY





USA.gov is the U.S. government's official web portal to all federal, state and local government web resources and services.